Selinsgrove, PA

9:33 PM EST on December 06, 2019 (GMT -0500)
Penn Valley

Weather History for KSEG - November, 2019

Change the Weather History Date:

Sunday, November 17, 2019

  Actual Average (WUND) Record (WUND)
Temperature  
Mean Temperature 30 °F -  
Max Temperature 41 °F - - (-1)
Min Temperature 18 °F - - (-1)
Degree Days  
Heating Degree Days 36    
Moisture  
Dew Point 22 °F    
Average Humidity 69    
Maximum Humidity 89    
Minimum Humidity 44    
Precipitation  
Precipitation 0.00 in - - ()
Sea Level Pressure  
Sea Level Pressure 30.25 in    
Wind  
Wind Speed 2 mph (North)    
Max Wind Speed 6 mph    
Max Gust Speed -    
Visibility 10 miles    
Events      
Averages and records for this station are not official NWS values.
T = Trace of Precipitation, MM = Missing Value Source: NWS Daily Summary

Daily Weather History Graph

Daily Weather History Graph

Search for Another Location

Airport or City:

Astronomy

Nov. 17, 2019 Rise Set
Actual Time 6:56 AM EST 4:47 PM EST
Civil Twilight 6:27 AM EST 5:17 PM EST
Nautical Twilight 5:53 AM EST 5:50 PM EST
Astronomical Twilight 5:21 AM EST 6:23 PM EST
Moon 9:21 PM EST (11/17) 11:41 AM EST (11/17)
Length of Visible Light 10h 50m
Length of Day
9h 51m
Waning Gibbous, 73% of the Moon is Illuminated
Nov 17
Waning Gibbous
Nov 19
Last Quarter
Nov 26
New
Dec 4
First Quarter
Dec 12
Full

Hourly Weather History & Observations

Time (EST) Temp. Windchill Dew Point Humidity Pressure Visibility Wind Dir Wind Speed Gust Speed Precip Events Conditions
12:53 AM 19.9 °F - 14.0 °F 78% 30.43 in 10.0 mi Calm Calm - N/A   Clear
1:53 AM 19.0 °F 13.9 °F 12.9 °F 77% 30.41 in 10.0 mi NW 3.5 mph - N/A   Clear
2:53 AM 19.0 °F 13.9 °F 14.0 °F 81% 30.40 in 10.0 mi NW 3.5 mph - N/A   Clear
3:53 AM 19.0 °F - 12.9 °F 77% 30.40 in 10.0 mi Calm Calm - N/A   Clear
4:53 AM 18.0 °F 12.7 °F 12.9 °F 81% 30.39 in 10.0 mi NNW 3.5 mph - N/A   Scattered Clouds
5:53 AM 19.9 °F 13.4 °F 14.0 °F 78% 30.39 in 10.0 mi NNW 4.6 mph - N/A   Partly Cloudy
6:53 AM 19.9 °F 12.1 °F 12.9 °F 74% 30.38 in 10.0 mi NNW 5.8 mph - N/A   Clear
7:53 AM 23.0 °F 18.4 °F 12.9 °F 65% 30.37 in 10.0 mi NNW 3.5 mph - N/A   Clear
8:53 AM 26.1 °F 21.9 °F 12.9 °F 58% 30.36 in 10.0 mi NNW 3.5 mph - N/A   Overcast
9:53 AM 28.9 °F 23.9 °F 10.0 °F 45% 30.35 in 10.0 mi ENE 4.6 mph - N/A   Overcast
10:53 AM 32.0 °F 28.7 °F 14.0 °F 48% 30.33 in 10.0 mi North 3.5 mph - N/A   Overcast
11:53 AM 35.1 °F 32.2 °F 15.1 °F 44% 30.29 in 10.0 mi Variable 3.5 mph - N/A   Overcast
12:53 PM 37.9 °F 34.4 °F 19.0 °F 47% 30.25 in 10.0 mi NNW 4.6 mph - N/A   Overcast
1:53 PM 39.9 °F - 21.9 °F 49% 30.21 in 10.0 mi Calm Calm - N/A   Overcast
2:53 PM 41.0 °F - 25.0 °F 53% 30.17 in 10.0 mi Calm Calm - N/A   Overcast
3:53 PM 39.9 °F - 30.9 °F 70% 30.17 in 10.0 mi Calm Calm - N/A   Overcast
4:43 PM 39.9 °F - 30.9 °F 70% 30.13 in 10.0 mi Calm Calm - N/A   Overcast
4:53 PM 39.0 °F - 30.9 °F 73% 30.15 in 10.0 mi Calm Calm - N/A   Overcast
5:53 PM 37.9 °F - 32.0 °F 79% 30.15 in 10.0 mi Calm Calm - N/A   Overcast
6:53 PM 37.0 °F - 32.0 °F 82% 30.14 in 10.0 mi Calm Calm - N/A   Overcast
7:53 PM 37.0 °F - 32.0 °F 82% 30.12 in 10.0 mi Calm Calm - N/A   Overcast
8:53 PM 39.0 °F 34.8 °F 30.0 °F 70% 30.10 in 10.0 mi ESE 5.8 mph - N/A   Overcast
9:53 PM 37.0 °F - 32.0 °F 82% 30.09 in 10.0 mi Calm Calm - N/A   Overcast
10:53 PM 37.0 °F 34.5 °F 32.0 °F 82% 30.06 in 10.0 mi East 3.5 mph - N/A   Overcast
11:53 PM 36.0 °F - 33.1 °F 89% 30.04 in 8.0 mi Calm Calm - N/A   Overcast